Home > Weather > Tarlac City > Past weeks

Flag for Philippines Past Weather in Tarlac City, Philippines — Yesterday and Last 2 Weeks

Now
93 °F

Partly sunny.


Feels Like: 103 °F
Forecast: 78 / 94 °F
Wind: 7 mph from Southeast

Location: Clarkfield Pampanga International Airport

Current Time: Jun 29, 2016 at 3:24:07 PM

Latest Report: Jun 29, 2016 at 3:00 PM


Visibility: N/A

Pressure: 29.83 "Hg

Humidity: 53%

Dew Point: 73 °F

Location of Tarlac CityLocation

Past Weather in Tarlac City — Graph

°F

Tarlac City Temperature Yesterday

Maximum temperature yesterday: 91 °F (at 3:00 PM)
Minimum temperature yesterday: 77 °F (at 8:00 PM)
Average temperature yesterday: 82 °F

High & Low Weather Summary for the Past Weeks

 TemperatureHumidityPressure
High95 °F (Jun 15, 2:00 PM)94% (Jun 14, 3:00 PM)29.95 "Hg (Jun 14, 3:00 PM)
Low75 °F (Jun 24, 9:00 PM)49% (Jun 22, 2:00 PM)29.74 "Hg (Jun 23, 4:00 PM)
Average84 °F76%29.84 "Hg
* Reported Jun 14 2:00 PM — Jun 29 2:00 PM, Tarlac City, Weather by CustomWeather, © 2016

Note: Actual official high and low records may vary slightly from our data, if they occured in-between our weather recording intervals... More about our weather records

Advertising

Tarlac City Weather History for the Previous 24 Hours

Scroll right to see more
 ConditionsComfort  
Time TempWeatherWind HumidityBarometerVisibility
2:00 PM
Wed, Jun 29
91 °FPartly sunny.2 mph59%29.86 "HgN/A
1:00 PM91 °FPartly sunny.2 mph59%29.89 "HgN/A
12:00 PM90 °FBroken clouds.6 mph63%29.92 "HgN/A
11:00 AM88 °FBroken clouds.3 mph70%29.92 "HgN/A
10:00 AM88 °FPartly sunny.3 mph66%29.95 "HgN/A
9:00 AM84 °FPartly sunny.5 mph74%29.95 "HgN/A
8:00 AM81 °FPartly sunny.2 mph84%29.95 "HgN/A
7:00 AM77 °FPartly sunny.1 mph94%29.92 "HgN/A
6:00 AM77 °FPartly sunny.1 mph89%29.92 "HgN/A
5:00 AM77 °FPartly cloudy.3 mph89%29.92 "HgN/A
4:00 AM77 °FPassing clouds.1 mph89%29.89 "HgN/A
3:00 AM77 °FPassing clouds.3 mph94%29.89 "HgN/A
2:00 AM77 °FPassing clouds.2 mph94%29.92 "HgN/A
1:00 AM77 °FPassing clouds.2 mph94%29.92 "HgN/A
12:00 AM77 °FPassing clouds.5 mph94%29.92 "HgN/A
11:00 PM
Tue, Jun 28
79 °FPassing clouds.5 mph89%29.92 "HgN/A
10:00 PM79 °FPassing clouds.2 mph89%29.92 "HgN/A
9:00 PM79 °FPartly cloudy.2 mph89%29.92 "HgN/A
8:00 PM77 °FPassing clouds.2 mph94%29.89 "HgN/A
7:00 PM79 °FPartly cloudy.5 mph89%29.89 "Hg5 mi
6:00 PM81 °FThunderstorms. Broken clouds.7 mph84%29.89 "HgN/A
5:00 PM82 °FRain showers. More clouds than sun.13 mph79%29.86 "Hg3 mi
4:00 PM91 °FPartly sunny.2 mph56%29.80 "Hg5 mi
3:00 PM91 °FBroken clouds.1 mph59%29.83 "HgN/A
Weather by CustomWeather, © 2016

See weather overviewHow to use our weather pages